Location: Rancho Santa Fe Post Office
(33.0184°N, 117.2026°W)
Time: 02:29:37
(UTC+00:00)

Cosmos 1602 - Pass Details

Date: 10 September 2024
Orbit: 455 x 471 km, 82.5° (Epoch: 06 October)

Event Time Altitude Azimuth Distance (km) Brightness Sun altitude
Rises 12:21:30 0° 351° (N) 2,475 7.3 -14.8°
Reaches altitude 10° 12:23:35 10° 350° (N) 1,597 6.3 -14.4°
Maximum altitude 12:27:03 76° 265° (W) 473 3.3 -13.7°
Drops below altitude 10° 12:30:31 10° 179° (S) 1,589 6.0 -13.0°
Sets 12:32:34 0° 178° (S) 2,461 7.0 -12.6°
